Flag for India Weather past 2 weeks in Kãnpur, Uttar Pradesh, India

Now
91 °F

Passing clouds.


Feels Like: 108 °F
Forecast: 79 / 92 °F
Wind: No wind

Location: Lucknow / Amausi

Current Time: Jul 28, 2015 at 9:21:03 PM

Latest Report: Jul 28, 2015 at 8:30 PM


Visibility: 3 mi

Pressure: 29.56 "Hg

Humidity: 67%

Dew point: 79 °F

Location of KãnpurLocation

Historic Weather in Kãnpur — Graph

°F

Kãnpur temperature yesterday

Maximum temperature yesterday: 95 °F (at 4:00 PM)
Minimum temperature yesterday: 79 °F (at 5:00 AM)
Average temperature yesterday: 89 °F

Past Weeks' High & Low Weather Summary

 TemperatureHumidityPressure
High99 °F (Jul 14, 11:30 AM)100% (Jul 24, 6:30 PM)29.65 "Hg (Jul 24, 6:30 PM)
Low79 °F (Jul 24, 3:30 PM)53% (Jul 28, 5:30 PM)29.33 "Hg (Jul 15, 3:30 PM)
Average88 °F79%29.51 "Hg
* Reported Jul 13 7:30 PM — Jul 28 8:00 PM, Kãnpur, Weather by CustomWeather, © 2015

Note: Actual official high and low records may vary slightly from our data, if they occured in-between our weather recording intervals... More about our weather records

Advertising

Kãnpur weather history for previous 24 hours

 ConditionsComfort  
Time TempWeatherWind HumidityBarometerVisibility
8:00 PM
Tue, Jul 28
91 °FPassing clouds.No wind63%29.56 "Hg3 mi
7:30 PM91 °FPassing clouds.No wind67%29.56 "Hg3 mi
7:00 PM93 °FScattered clouds.No wind59%29.56 "Hg3 mi
6:30 PM95 °FScattered clouds.No wind60%29.53 "Hg3 mi
6:00 PM95 °FScattered clouds.No wind60%29.53 "Hg3 mi
5:30 PM97 °FScattered clouds.3 mph53%29.53 "Hg3 mi
4:00 PM95 °FBroken clouds.7 mph56%29.53 "Hg3 mi
3:00 PM95 °FBroken clouds.3 mph63%29.56 "Hg3 mi
2:00 PM95 °FScattered clouds.3 mph60%29.56 "Hg3 mi
1:00 PM93 °FScattered clouds.6 mph63%29.59 "Hg3 mi
11:00 AM91 °FScattered clouds.5 mph67%29.62 "Hg3 mi
10:00 AM88 °FScattered clouds.8 mph70%29.62 "Hg3 mi
8:00 AM84 °FScattered clouds.6 mph79%29.62 "Hg3 mi
7:00 AM82 °FHaze.3 mph84%29.62 "Hg2 mi
6:00 AM81 °FHaze.No wind84%29.62 "Hg2 mi
5:00 AM79 °FHaze.3 mph89%29.59 "Hg2 mi
4:00 AM81 °FHaze.3 mph84%29.59 "Hg2 mi
3:00 AM81 °FHaze.3 mph84%29.62 "Hg2 mi
2:00 AM82 °FHaze.5 mph84%29.62 "Hg2 mi
1:00 AM84 °FHaze.5 mph79%29.65 "Hg2 mi
12:00 AM86 °FHaze.5 mph75%29.65 "Hg2 mi
11:00 PM
Mon, Jul 27
86 °FPassing clouds.7 mph75%29.65 "Hg2 mi
9:00 PM90 °FPassing clouds.2 mph71%29.59 "Hg2 mi
Weather by CustomWeather, © 2015

See weather overviewHow to use our weather pages